Location: *
(42.0175°N, 9.4056°E)
Time: 03:08:00
(UTC+00:00)

Cosmos 883 Rocket - Pass Details

Date: 25 August 2019
Orbit: 950 x 996 km, 82.9° (Epoch: 19 September)

Event Time Altitude Azimuth Distance (km) Brightness Sun altitude
Exits shadow 19:41:11 - 176° (S) 3,157 6.8 -16.6°
Reaches altitude 10° 19:42:16 10° 174° (S) 2,753 6.5 -16.8°
Maximum altitude 19:48:32 67° 93° (E) 1,072 4.5 -17.8°
Drops below altitude 10° 19:54:49 10° 13° (NNE) 2,762 7.1 -18.8°
Sets 19:57:22 0° 11° (N) 3,710 7.9 -19.2°
